Starlink 30516

operational
NORAD ID: 57984 Int'l Des: 2023-151 Owner: SPXS Country: US Constellation: starlink
LEOCIRCULAR

Über Starlink 30516

Beschreibung wird geladen...

Live-Position

3D-Globus wird geladen...

Nächste Überflüge

Höhenverlauf

Altitude vs Time

uPlot chart will show altitude changes over time

Zweizeiliger Elementsatz

1 57984U 23151W 25302.82324676 .00000035 00000-0 17680-4 0 9999
2 57984 43.0045 342.9640 0001335 273.9493 86.1197 15.02535959115898
Epoch: 29. Okt. 2025 • Age: 29 hours

Aktueller Status

Höhe 558.5 km
Geschwindigkeit 7.58 km/s
Subsatellitenpunkt 9.52°N, 88.21°E
Startdatum 30. Sept. 2023
Alter 2 years
Typ internet

Technische Details

Klassifizierung Payload
Masse 730.00 kg
Trockenmasse 700.00 kg
Gesamtmasse 730.00 kg
Länge 0.30 m
Durchmesser 4.10 m
Spannweite 29.00 m
Form Box + pan
Hersteller SPXS
Bus-Typ Starlink V2M
Phasenstatus In Orbit
Besitzer/Staat SPXS/US

Große Konstellationen

Loading constellations...